Simultaneous Nadir Overpasses (SNOs) Predictions

Prediction of SNOs between METOP-B and NOAA-19 Satellite Orbit:

Table of predicted SNOs for the next 14.0 days since TLE Epoch: 11/24/2018
Index Date (METOP-B) Time (METOP-B) Lat,Lon (METOP-B) SZA (METOP-B ) Date (NOAA-19) Time (NOAA-19) Lat,Lon (NOAA-19) SZA (NOAA-19 ) Distance(km) Time Diff (sec)
1 11/28/2018 00:32:51 78.82,-175.55 100.41 11/28/2018 00:31:36 78.85,-175.82 100.41 6.70 75
2 11/28/2018 01:23:32 -78.82, -8.22 79.59 11/28/2018 01:22:32 -78.82, -8.33 79.60 2.41 60
3 11/28/2018 02:14:13 78.81, 159.03 100.41 11/28/2018 02:13:36 78.82, 158.94 100.40 2.26 37
4 11/28/2018 03:04:54 -78.81, -33.64 79.59 11/28/2018 03:04:32 -78.79, -33.58 79.61 2.65 22
5 11/28/2018 03:55:35 78.80, 133.61 100.40 11/28/2018 03:55:36 78.78, 133.69 100.40 2.22 1
6 11/28/2018 04:46:16 -78.80, -59.06 79.59 11/28/2018 04:46:33 -78.79, -59.08 79.60 1.04 17
7 11/28/2018 05:36:57 78.78, 108.19 100.40 11/28/2018 05:37:37 78.78, 108.19 100.41 0.07 40
8 11/28/2018 06:27:38 -78.78, -84.48 79.60 11/28/2018 06:28:34 -78.79, -84.59 79.59 2.28 56
9 11/28/2018 07:18:24 78.58, 81.59 100.16 11/28/2018 07:19:32 78.58, 84.16 100.30 56.59 68




NCC Satellite Simultaneous Nadir Overpasses (SNOs) Prediction Service
